Weather Roundup
Issued by NWS

Home | Current Version | Previous Version | Text Only | Print | Product List | Glossary On
Versions: 1 2 3 4 5 6 7 8 9 10 11 12 13 14 15 16 17 18 19 20 21 22 23 24 25 26 27 28 29 30 31 32 33 34 35 36 37 38 39 40 41 42 43 44 45 46 47 48 49 50
000
NZUS93 KARX 041010
HRRWXR

CURRENT HOURLY OBSERVATIONS ACROSS
MUCH OF THE UPPER MISSISSIPPI VALLEY
NATIONAL WEATHER SERVICE LA CROSSE WI
400 AM CST SUN DEC 04 2016


...SOUTHEAST MINNESOTA...


CITY           SKY/WX    TMP DP  RH WIND       PRES   REMARKS
ROCHESTER      LGT SNOW  32  31  96 SE13      30.03F FOG     WCI  22
ROCHESTER/MAYO CLOUDY    32  32 100 SE8       30.04F WCI  25
WINONA         LGT SNOW  32  32 100 SE7       30.10F WCI  26
AUSTIN         LGT SNOW  32  30  93 SE9       30.01F WCI  24
ALBERT LEA     LGT SNOW  36  36 100 SE13      30.00F WCI  27
DODGE CENTER   LGT SNOW  30  30 100 SE10      30.01F WCI  21
PRESTON        LGT SNOW  31  30  95 SE10      30.04F WCI  22
OWATONNA       LGT SNOW  34  30  86 SE12      30.00F WCI  25
FARIBAULT      LGT SNOW  34  32  93 SE7       30.01F WCI  28
$$

...ELSEWHERE IN MINNESOTA...


CITY           SKY/WX    TMP DP  RH WIND       PRES   REMARKS
MINNEAPOLIS    LGT SNOW  31  29  92 SE12      30.02F FOG     WCI  22
INTNL FALLS    LGT SNOW  26  23  88 SE9       29.96F FOG     WCI  17
DULUTH         LGT SNOW  26  24  92 SE10      30.02F FOG     WCI  16
RED WING       LGT SNOW  34  30  86 SE8       30.05F WCI  27
REDWOOD FALLS  CLOUDY    34  32  92 S9        29.94F WCI  27
MANKATO        LGT SNOW  33  31  92 SE13      29.99F FOG     WCI  24
WORTHINGTON    CLOUDY    33  32  96 S13       29.93F WCI  24
FAIRMONT       LGT RAIN  33  32  96 S10       29.97F WCI  25
$$

...SOUTHWEST WISCONSIN...


CITY           SKY/WX    TMP DP  RH WIND       PRES   REMARKS
LA CROSSE      LGT SNOW  34  31  88 SE7       30.12F FOG     WCI  28
PRAIRIE DU CHI LGT SNOW  32  31  93 SE5       30.12F WCI  28
BOSCOBEL       LGT SNOW  34  30  85 CALM      30.14F FOG
LONE ROCK      FLURRIES  32  29  88 E6        30.16F WCI  26
PLATTEVILLE    CLOUDY    32  32 100 SE6       30.14F WCI  26
FORT MC COY    LGT SNOW  31  30  94 E3        30.13F
CAMP DOUGLAS   CLOUDY    30  27  87 SE7       30.14F WCI  24
MAUSTON-NEW LI CLOUDY    31  28  88 SE5       30.14F WCI  26
VIROQUA        CLOUDY    30  30 100 SE7       30.10F WCI  23
WIS DELLS      CLOUDY    31  27  84 S6        30.15F WCI  25
$$

...ELSEWHERE IN WISCONSIN...


CITY           SKY/WX    TMP DP  RH WIND       PRES   REMARKS
MILWAUKEE      CLOUDY    29  23  78 CALM      30.20F
MADISON        LGT SNOW  31  29  92 SE6       30.16F FOG     WCI  25
GREEN BAY      CLOUDY    32  26  78 S5        30.19F WCI  27
EAU CLAIRE     LGT SNOW  30  28  92 SE6       30.08F FOG     WCI  24
BLACK RVR FLS  LGT SNOW  31  28  87 SE3       30.13F
MEDFORD        MIX PCPN  27  23  87 SE6       30.10F WCI  20
WAUSAU         CLOUDY    28  21  75 S6        30.13F WCI  22
WIS RAPIDS     CLOUDY    29  24  82 SE7       30.16F WCI  22
MARSHFIELD     CLOUDY    28  23  81 S5        30.11F WCI  23
RICE LAKE      LGT SNOW  29  26  90 SE8       30.09F WCI  21
$$

...NORTHEAST IOWA...


CITY           SKY/WX    TMP DP  RH WIND       PRES   REMARKS
WATERLOO       LGT SNOW  33  31  92 SE14G22   30.06F FOG     WCI  23
DUBUQUE        LGT SNOW  30  29  96 SE9       30.13F FOG     WCI  22
DECORAH        LGT SNOW  32  30  93 SE7G14    30.06F VSB 1   WCI  26
MASON CITY     LGT SNOW  32  31  96 SE15      30.02F FOG     WCI  22
CHARLES CITY   LGT SNOW  32  32 100 SE14      30.04F VSB 3/4 WCI  22
OELWEIN        LGT SNOW  32  32 100 SE15      30.08F VSB 1   WCI  22
$$

...ELSEWHERE IN IOWA...


CITY           SKY/WX    TMP DP  RH WIND       PRES   REMARKS
DES MOINES     LGT SNOW  37  35  92 S10       30.04F FOG     WCI  30
IOWA CITY      LGT SNOW  34  31  88 SE10      30.13F FOG     WCI  26
FORT DODGE     CLOUDY    34  30  86 S9        30.00F WCI  26
MARSHALLTOWN   LGT SNOW  33  33 100 SE14      30.04F VSB 1   WCI  23
CEDAR RAPIDS   LGT SNOW  32  32 100 SE9       30.09F FOG     WCI  24
$$

...NORTHERN ILLINOIS...


CITY           SKY/WX    TMP DP  RH WIND       PRES   REMARKS
CHICAGO-OHARE  CLOUDY    31  25  78 CALM      30.21F
CHICAGO-MIDWAY CLOUDY    33  24  69 CALM      30.22F
MOLINE         CLOUDY    35  28  75 SE8       30.15F WCI  29
ROCKFORD       CLOUDY    32  27  81 S8        30.20F WCI  25
PEORIA         CLOUDY    34  28  79 E7        30.17F WCI  28
$$

NOTE: "FAIR" INDICATES FEW OR NO CLOUDS BELOW 12,000 FEET WITH NO
SIGNIFICANT WEATHER AND/OR OBSTRUCTIONS TO VISIBILITY. WIND
SPEEDS ARE IN MILES-PER-HOUR.




USA.gov is the U.S. government's official web portal to all federal, state and local government web resources and services.